STARLINK-5769, 55585

Orbit data source: Space-Track

STARLINK-5769, 55585 is a payload satellite owned by SpaceX/Seattle (US) in LEO that was launched on Sun, 12 Feb 2023 UTC via an FALCON 9 launch vehicle from the Air Force Eastern Test Range (AFETR). Payload-class satellites include a variety of spacecraft equipped with specific instruments for various scientific and technological missions. These include communications satellites like Starlink; space stations such as the ISS; scientific satellites like the Hubble; Earth observation satellites from companies like Planet Labs, Umbra, and HawkEye 360; GPS; miniature CubeSats for education and research; and military/defense satellites.

Loading next visibility...
Identifier
55585, 2023-020S
Orbit
LEO
Country
Flag of USUS
Related business
Manufacturer
SpaceX/Seattle
Mission
Operational Commercial Communications
Bus & Motor
STARLINK, Unknown motor
Mass
305 kg wet, ~290 kg dry
Launch date (UTC)
2023-02-12 (4 years ago)
Launch vehicle
FALCON 9
Launch site
Air Force Eastern Test Range (AFETR)
Object type
Payload
Rocket body
Debris
Shape & HBR
Box + 1 Pan, 10.1 m
Radar Cross Section
13.562 m², Large (>1 m²)

Expand to show TLE details & history
Last TLE update: 18 hours ago

TLE from 18 hours ago
0 STARLINK-5769
1 55585U 23020S   26263.65806140  .00003848  00000-0  14920-3 0  9996
2 55585  43.0037 333.4713 0001705 281.0332  79.0328 15.27603034198854
Epoch: 2026-09-20T15:47Z
TLE epoch observation values (Epoch: 2026-09-20T15:47:36.504Z)
Latitude
-0.00003°
Longitude
97.02008°
Altitude
482.534 km
Speed
7.626 km/s
True Right ascension
22h 13m 53s
True Declination
0° 00' 00"
Sunlit
Object was in full shadow at epoch
Visualization orbit readout
Latitude
Unknown
Longitude
Unknown
Altitude
Unknown
Speed
Unknown
Apparent Right ascension
Unknown
Apparent Declination
Unknown
Sunlit
N/A
Visualization observer readout
Local Sidereal Time
03:13:04
Azimuth
Unknown
Elevation
Unknown
Doppler factor
Unknown
Orbital elements
Apogee altitude
486.095 km
Perigee altitude
483.755 km
Semi-major axis
6,863.062 km
Eccentricity
0.00017
Inclination
43.0037°
RAAN
333.4713°
Arg. of periapsis
281.0332°
True anomaly
79.05198°
Mean anomaly
79.0328°
Eccentric anomaly
79.04239°
Mean motion
3.81739 °/min
Orbital period
94.31 mins
BSTAR
0.0001492
Loading maneuver chart data...
Computing Atmospheric mass density...
Loading historical data...
Loading historical data...
Loading historical data...
Loading historical data...
Loading historical data...
Loading historical data...
Loading historical data...

Documentation

Showing up to 5 results
|